Tracking 27112 objects as of 28-Mar-2023
HD Live streaming from Space Station
objects crossing your sky now

COSMOS 1066

Track COSMOS 1066 now!
10-day predictions
COSMOS 1066 is classified as:


NORAD ID: 11165
Int'l Code: 1978-121A
Perigee: 825.1 km
Apogee: 896.1 km
Inclination: 81.2 °
Period: 102.0 minutes
Semi major axis: 7231 km
RCS: 4.6495 m2 (large)
Launch date: December 23, 1978
Source: Commonwealth of Independent States (former USSR) (CIS)
Launch site: PLESETSK MISSILE AND SPACE COMPLEX (PKMTR)
Your satellite tracking list
Your tracking list is empty




NASA's NSSDC Master Catalog

Two Line Element Set (TLE):
1 11165U 78121A   23086.62358566  .00000199  00000-0  10138-3 0  9998
2 11165  81.2387 326.4364 0049125 197.0996 162.8523 14.11731117795156
Source of the keplerian elements: AFSPC